Weather Roundup
Issued by NWS Springfield, MO

Home | Current Version | Previous Version | Text Only | Print | Product List | Glossary On
Versions: 1 2 3 4 5 6 7 8 9 10 11 12 13 14 15 16 17 18 19 20 21 22 23 24 25 26 27 28 29 30 31 32 33 34 35 36 37 38 39 40 41 42 43 44 45 46 47 48 49 50
000
NZUS99 KSGF 191907
HRRSGF

HOURLY WEATHER
NATIONAL WEATHER SERVICE SPRINGFIELD MO
200 PM CDT THU APR 19 2018

......SGF CWA......

CITY           SKY/WX    TMP DP  RH WIND       PRES   REMARKS
SPRINGFIELD    SUNNY     53  31  42 NE12G23   30.40S
JOPLIN         SUNNY     52  32  46 E8        30.43F
WEST PLAINS    SUNNY     52  29  41 N10G17    30.39S
ROLLA          MOSUNNY   49  30  48 N15G22    30.42R
OSAGE BEACH    MOSUNNY   51  30  44 N10       30.44R
BRANSON        MOSUNNY   50  28  43 N10G22    30.40S

......SURROUNDING SGF CWA......

CITY           SKY/WX    TMP DP  RH WIND       PRES   REMARKS
CHANUTE        SUNNY     55  27  34 NE13      30.44F
PARSONS        SUNNY     56  27  32 VRB6      30.45F
COFFEYVILLE    SUNNY     57  30  35 N10G17    30.44F
EMPORIA        SUNNY     54  28  36 NE10G17   30.45F
GROVE OK       SUNNY     55  30  38 N9G16     30.42F
ROGERS AR      SUNNY     51  30  44 NW9G21    30.40S
SILOAM SPRINGS SUNNY     54  33  45 N8G16     30.40F
HARRISON AR    SUNNY     53  28  38 N10G17    30.38S
NEAR YELLVILLE SUNNY     54  29  38 N12       30.40R

......KANSAS AND MISSOURI......

CITY           SKY/WX    TMP DP  RH WIND       PRES   REMARKS
KANSAS CTY INT MOSUNNY   55  31  39 NE10      30.45S
DOWNTOWN KC    SUNNY     55  31  39 NE10      30.45S
COLUMBIA       MOSUNNY   52  30  43 N12G17    30.43S
SEDALIA        MOSUNNY   53  32  44 VRB5      30.45S
ST JOSEPH      SUNNY     57  31  37 MISG      30.45F
ST LOUIS       MOSUNNY   50  33  52 N13       30.42S
SPIRIT OF STL  PTSUNNY   51  33  50 N13       30.42S
KIRKSVILLE     MOSUNNY   53  31  42 NE8       30.45S
WICHITA        MOSUNNY   57  28  33 E14G22    30.42F
TOPEKA         SUNNY     56  31  38 MISG      30.46F
OLATHE         SUNNY     52  30  43 NE10      30.45S

......TENNESSEE......

CITY           SKY/WX    TMP DP  RH WIND       PRES   REMARKS
MEMPHIS        FAIR      55  32  41 N16       30.35R
NASHVILLE      PTSUNNY   53  30  41 N15G24    30.31R

......ARKANSAS.......

CITY           SKY/WX    TMP DP  RH WIND       PRES   REMARKS
FAYETTEVILLE   SUNNY     54  30  40 NE9G20    30.38F
FT SMITH       MOSUNNY   60  35  39 VRB5G20   30.36F
LITTLE ROCK    PTSUNNY   59  32  36 NW9       30.35F

......OKLAHOMA.......

CITY           SKY/WX    TMP DP  RH WIND       PRES   REMARKS
TULSA          PTSUNNY   58  33  39 N13G21    30.40F
PONCA CITY     SUNNY     59  29  31 NE9G22    30.41F
MCALESTER      MOSUNNY   60  34  37 NE10G17   30.39F
OKLAHOMA CITY  CLOUDY    60  30  32 N6        30.39F

......IOWA............

CITY           SKY/WX    TMP DP  RH WIND       PRES   REMARKS
DES MOINES     MOSUNNY   51  27  39 VRB7      30.48F
QUAD CITIES    FAIR      53  29  39 NW9       30.43R

......ILLINOIS........

CITY           SKY/WX    TMP DP  RH WIND       PRES   REMARKS
QUINCY         SUNNY     53  31  42 N13G18    30.42F
CHICAGO        FAIR      52  27  38 N10       30.35R




USA.gov is the U.S. government's official web portal to all federal, state and local government web resources and services.